AirNav   Air Wisconsin pilot careers
 
 358 users online  

35MN Wipline Airport
Inver Grove Heights, Minnesota, USA

GOING TO INVER GROVE HEIGHTS?


FAA INFORMATION EFFECTIVE 03 JANUARY 2019

Location

FAA Identifier: 35MN
Lat/Long: 44-48-55.8790N / 093-00-48.7690W
44-48.931317N / 093-00.812817W
44.8155219 / -93.0135469
(estimated)
Elevation: 687 ft. / 209 m (estimated)
Variation: 03E (1985)
From city: 2 miles SE of INVER GROVE HEIGHTS, MN
Time zone: UTC -6 (UTC -5 during Daylight Saving Time)
Zip code: 55077

Airport Operations

Airport use: Private use. Permission required prior to landing
Activation date: 02/1978
Control tower: no
ARTCC: MINNEAPOLIS CENTER
FSS: PRINCETON FLIGHT SERVICE STATION
Attendance: UNATNDD
Wind indicator: yes
Segmented circle: no

Airport Communications

WX AWOS-3 at SGS (2.6 nm N): 119.425 (651-457-8120)
WX ASOS at STP (7 nm N): PHONE 651-298-1410
WX ASOS at MSP (10 nm NW): PHONE 612-713-4174
WX AWOS-3 at 21D (13 nm NE): 120.075 (651-779-5949)
WX AWOS-3 at LVN (15 nm SW): 118.0 (952-469-5850)
WX ASOS at FCM (19 nm W): PHONE 952-941-4156

Nearby radio navigation aids

VOR radial/distance  VOR name  Freq  Var
MSPr115/10.7MINNEAPOLIS VOR/DME115.3002E
FGTr027/13.2FARMINGTON VORTAC115.7006E
FCMr091/18.3FLYING CLOUD VOR/DME117.7001E
GEPr136/25.0GOPHER VORTAC117.3006E
FOWr021/39.7HALFWAY VOR/DME111.2002E

 
NDB name  Hdg/Dist  Freq  Var  ID
HOPEY218/4.640003EPPI .--. .--. ..

Airport Services

Runway Information

Runway 3/21

Dimensions: 2300 x 150 ft. / 701 x 46 m
Surface: turf
RUNWAY 3  RUNWAY 21
Traffic pattern: leftleft

Airport Ownership and Management from official FAA records

Ownership: Privately-owned
Owner: ROBERT WIPLINGER
9100 RIVER ROAD
INVER GROVE HTS, MN 55075
Phone 612-451-1205
Manager: ROBERT WIPLINGER
9100 RIVER ROAD
INVER GROVE HTS, MN 55075
Phone 612-451-1205
CELL: 612-867-6160

Airport Operational Statistics

Aircraft based on the field: 5
Single engine airplanes: 5
    

Instrument Procedures

There are no published instrument procedures at 35MN.

Some nearby airports with instrument procedures:

KSGS - South St Paul Municipal Airport-Richard E Fleming Field (3 nm N)
KSTP - St Paul Downtown Airport Holman Field (7 nm N)
KMSP - Minneapolis-St Paul International/Wold-Chamberlain Airport (10 nm NW)
21D - Lake Elmo Airport (13 nm NE)
KLVN - Airlake Airport (15 nm SW)
KFCM - Flying Cloud Airport (19 nm W)
 
Loc | Ops | Rwys | IFR | FBO | Links
Com | Nav | Svcs | Stats | Notes
Area around 35MN (Wipline Airport)
 
Road maps at: MapQuest Bing Google
 
Aerial photo
No photo
 
Sectional chart

 
Airport distance calculator
Flying to Wipline Airport? Find the distance to fly.

From to 35MN

Sunrise and sunset
Times for 21-Jan-2019
 Local
(UTC-6)
 Zulu
(UTC)
Morning civil twilight07:1113:11
Sunrise07:4313:43
Sunset17:0423:04
Evening civil twilight17:3623:36

Current date and time
Zulu (UTC)  21-Jan-2019 10:47:11
Local (UTC-6)  21-Jan-2019 04:47:11
 
METAR
KSGS 
6nm W 
211036Z AUTO 15003KT 10SM BKN100 M18/M21 A3044 RMK AO2 T11811215
KSTP 
7nm N 
210953Z AUTO 15008KT 10SM SCT100 M17/M21 A3046 RMK AO2 SLP329 T11721211
KMSP 
10nm NW 
210953Z 15008KT 10SM OVC095 M17/M21 A3043 RMK AO2 SLP326 T11721211
K21D 
13nm NE 
211036Z AUTO 17003KT 10SM M17/M21 A3044 RMK AO2
KLVN 
15nm SW 
211015Z AUTO 14003KT 10SM CLR M20/M22 A3041 RMK AO2
KFCM 
19nm W 
210953Z AUTO 14007KT 10SM FEW090 M18/M22 A3041 RMK AO2 SLP320 T11831222
TAF
KMSP 
10nm NW 
210830Z 2108/2212 11004KT P6SM FEW250 FM211700 14013G21KT 5SM -SN BLSN OVC050 TEMPO 2117/2121 2SM -SN BLSN OVC030 FM212100 14013G21KT P6SM VCSH OVC035 FM220200 13011KT P6SM OVC030 FM220700 13009KT 2SM -SN OVC025
NOTAMs
Click for the latest NOTAMs
NOTAMs are issued by the DoD/FAA and will open in a separate window not controlled by AirNav.

 

 
 

Would you like to see your business listed on this page?

 If your business provides an interesting product or service to pilots, flight crews, aircraft, or users of the Wipline Airport, you should consider listing it here.  To start the listing process, click on the button below
 
Add a business
 

Other Pages about Wipline Airport

Update a link
 
Copyright © AirNav, LLC. All rights reserved. Privacy Policy  Contact